Weather History for CWLP - February, 2013

Change the Weather History Date:

Wednesday, February 6, 2013

  Actual Average Record
Temperature  
Mean Temperature 44 °F -  
Max Temperature 46 °F - - ()
Min Temperature 41 °F - - ()
Degree Days  
Heating Degree Days 22    
Moisture  
Dew Point 38 °F    
Average Humidity 80    
Maximum Humidity 87    
Minimum Humidity 62    
Precipitation  
Precipitation 0.04 in - - ()
Sea Level Pressure  
Sea Level Pressure 29.63 in    
Wind  
Wind Speed 24 mph ()    
Max Wind Speed 43 mph    
Max Gust Speed 52 mph    
T = Trace of Precipitation, MM = Missing Value Source: Averaged Metar Reports

Daily Weather History Graph

Daily Weather History Graph

Search for Another Location

Airport or City:

Trip Planner

Search our weather history database for the weather conditions in past years. The results will help you decide how hot, cold, wet, or windy it might be!

Date:

Astronomy

Feb. 06, 2013 Rise Set
Actual Time 7:58 AM PST 5:31 PM PST
Civil Twilight 7:23 AM PST 6:06 PM PST
Nautical Twilight 6:44 AM PST 6:45 PM PST
Astronomical Twilight 6:05 AM PST 7:24 PM PST
Moon 5:01 AM PST (2/6) 1:43 PM PST (2/6)
Length of Visible Light 10h 43m
Length of Day
9h 33m
Waning Crescent, 16% of the Moon is Illuminated
Feb 6
Waning Crescent
Feb 9
New
Feb 17
First Quarter
Feb 25
Full
Mar 4
Last Quarter

Hourly Weather History & Observations

Time (PST) Temp. Windchill Dew Point Humidity Pressure Visibility Wind Dir Wind Speed Gust Speed Precip Events Conditions
12:00 AM 43.9 °F 37.9 °F 39.4 °F 84% 29.67 in - South 11.5 mph - N/A   Unknown
1:00 AM 43.7 °F 36.6 °F 38.8 °F 83% 29.69 in - SSE 15.0 mph - N/A   Unknown
2:00 AM 43.7 °F 35.4 °F 39.0 °F 84% 29.71 in - SE 19.6 mph - N/A   Unknown
3:00 AM 42.4 °F 33.3 °F 37.8 °F 83% 29.73 in - SSE 21.9 mph - N/A   Unknown
4:00 AM 42 °F - 38 °F 83% 29.74 in - SE 17.3 mph - -  
4:00 AM 42.1 °F 33.9 °F 38.5 °F 87% 29.74 in - SE 17.3 mph - N/A   Unknown
5:00 AM 43.0 °F 34.8 °F 39.0 °F 86% 29.73 in - SE 18.4 mph - N/A   Unknown
6:00 AM 43.3 °F 35.2 °F 38.7 °F 84% 29.73 in - SE 18.4 mph - N/A   Unknown
8:00 AM 43.2 °F 33.6 °F 38.8 °F 85% 29.70 in - SE 25.3 mph - N/A   Unknown
9:00 AM 43.7 °F 33.5 °F 38.5 °F 82% 29.69 in - ESE 29.9 mph - N/A   Unknown
10:00 AM 44 °F - 39 °F 75% 29.69 in - SE 34.5 mph - -  
10:00 AM 44.1 °F 33.3 °F 38.7 °F 81% 29.69 in - SE 34.5 mph 41.4 mph N/A   Unknown
11:00 AM 44.6 °F 33.6 °F 38.1 °F 78% 29.68 in - SE 38.0 mph 44.9 mph N/A   Unknown
12:00 PM 44.8 °F 33.5 °F 37.9 °F 77% 29.65 in - SE 41.4 mph 49.5 mph N/A   Unknown
1:00 PM 44.6 °F 33.2 °F 38.3 °F 79% 29.64 in - SE 41.4 mph 48.3 mph N/A   Unknown
2:00 PM 44.6 °F 33.2 °F 38.8 °F 80% 29.60 in - ESE 41.4 mph 49.5 mph N/A   Unknown
3:00 PM 44.4 °F 32.8 °F 39.2 °F 82% 29.60 in - ESE 42.6 mph 50.6 mph N/A   Unknown
4:00 PM 44 °F - 39 °F 77% 29.59 in - SE 41.4 mph - -  
4:00 PM 44.2 °F 32.7 °F 39.2 °F 82% 29.59 in - SE 41.4 mph 50.6 mph N/A   Unknown
5:00 PM 44.4 °F 33.4 °F 39.4 °F 82% 29.57 in - ESE 38.0 mph 50.6 mph N/A   Unknown
6:00 PM 44.2 °F 32.8 °F 39.4 °F 83% 29.56 in - ESE 40.3 mph 51.8 mph N/A   Unknown
7:00 PM 44.1 °F 32.6 °F 39.2 °F 83% 29.55 in - ESE 40.3 mph 48.3 mph N/A   Unknown
8:00 PM 45.3 °F 34.1 °F 37.2 °F 73% 29.53 in - ESE 42.6 mph 50.6 mph N/A   Unknown
9:00 PM 45.5 °F 34.6 °F 37.6 °F 74% 29.52 in - ESE 40.3 mph 50.6 mph N/A   Unknown
10:00 PM 46 °F - 37 °F 62% 29.52 in - ESE 35.7 mph - -  
10:00 PM 46.0 °F 35.9 °F 37.0 °F 71% 29.52 in - ESE 35.7 mph - N/A   Unknown
11:00 PM 46.6 °F - 37.0 °F 69% 29.50 in - ESE 38.0 mph 47.2 mph N/A   Unknown